THOR ABLESTAR DEB, 48827

Orbit data source: Space-Track

THOR ABLESTAR DEB, 48827 is space debris in LEO originally from a launch on Thu, 29 Jun 1961 UTC launched from the Air Force Eastern Test Range (AFETR). Debris objects in space refer to the collection of defunct objects orbiting the Earth. Examples of debris include non-operational satellites, rocket bodies, and fragments generated from explosions, collisions, or faulty payload assembly.

Loading next visibility...
Identifier
48827, 1961-015NF
Orbit
LEO
Country
Flag of USUS
Related business
Manufacturer
Unknown
Mission
Spacecraft
Bus & Motor
Unknown
Mass
Unknown
Launch date (UTC)
1961-06-29 (65 years ago)
Launch vehicle
Unknown
Launch site
Air Force Eastern Test Range (AFETR)
Object type
Payload
Rocket body
Debris
Shape & HBR
Unknown shape, 0.1 m
Radar Cross Section
Small (<0.1 m²)

Expand to show TLE details & history
Last TLE update: 2 days ago

TLE from 2 days ago
0 THOR ABLESTAR DEB
1 48827U 61015NF  26167.41098800  .00000146  00000-0  30576-3 0  9999
2 48827  68.1602 207.2887 0339892 137.4541 225.3399 13.31441437609758
Epoch: 2026-06-16T09:51Z
TLE epoch observation values (Epoch: 2026-06-16T09:51:49.363Z)
Latitude
Longitude
154.64961°
Altitude
1,327.364 km
Speed
7.106 km/s
True Right ascension
13h 49m 09s
True Declination
0° 00' 00"
Sunlit
Object was in daylight at epoch
Visualization orbit readout
Latitude
Unknown
Longitude
Unknown
Altitude
Unknown
Speed
Unknown
Apparent Right ascension
Unknown
Apparent Declination
Unknown
Sunlit
N/A
Visualization observer readout
Local Sidereal Time
11:55:56
Azimuth
Unknown
Elevation
Unknown
Doppler factor
Unknown
Orbital elements
Apogee altitude
1,395.143 km
Perigee altitude
884.098 km
Semi-major axis
7,517.758 km
Eccentricity
0.03399
Inclination
68.1602°
RAAN
207.2887°
Arg. of periapsis
137.4541°
True anomaly
222.65093°
Mean anomaly
225.3399°
Eccentric anomaly
223.9874°
Mean motion
3.32974 °/min
Orbital period
108.12 mins
BSTAR
0.00030576

Documentation

Showing up to 5 results
|